Find Starlink 11262

NORAD ID: 62009 Int'l Des: 2024-213 Owner: SPXS Country: US Constellation: starlink operational
LEOCIRCULAR

当前视图

正在加载3D地球...

About Starlink 11262

Starlink 11262 (NORAD 62009) is a starlink constellation satellite (v2 mini d2c) launched Nov 18, 2024 by SPXS of US. It operates in LEO, CIRCULAR orbit with a mass of 960.00 kg.

关于 Starlink 11262

正在加载描述...

即将过境

Passes for default location (London). Set your location on the main map for personalized predictions.

高度历史

Loading altitude history...

两行轨道根数

1 62009U 24213B 26174.90481400 .00126587 00000-0 10329-2 0 9991
2 62009 53.1565 237.9441 0001202 66.4699 293.6445 15.69731408 91590
Epoch: Jun 23, 2026 • Age: 31 hours

当前状态

高度 364.2 km
速度 7.70 km/s
星下点 52.14°N, 37.48°W
发射日期 Nov 18, 2024
运行时间 1.5 years
类型 internet

技术详情

分类 Payload
质量 960.00 kg
干质量 910.00 kg
总质量 960.00 kg
长度 0.30 m
直径 4.10 m
跨度 29.00 m
形状 Box + pan
制造商 SPXS
平台类型 Starlink V2MD
阶段状态 In Orbit
所有者/国家 SPXS/US

Most Searched